Location: Evensen
(52.5775°N, 9.5258°E)
Time: 10:40:54
(UTC+00:00)

ALOS 2 - Pass Details

Date: 15 May 2026
Orbit: 630 x 632 km, 97.9° (Epoch: 8 June)

Event Time Altitude Azimuth Distance (km) Brightness Sun altitude
Exits shadow 22:54:10 38° 189° (S) 976 3.0 -18.2°
Maximum altitude 22:55:44 65° 257° (WSW) 698 2.7 -18.2°
Drops below altitude 10° 23:00:08 10° 341° (NNW) 2,027 6.4 -18.3°
Sets 23:02:22 0° 344° (NNW) 2,939 7.6 -18.3°
